    Orbital elements:
    2017 BP32                                                Earth MOID = 0.0522 AU
    Epoch 2017 Feb. 16.0 TT = JDT 2457800.5                 MPC
    M   5.66153              (2000.0)            P               Q
    n   0.65659481     Peri.  185.62404     -0.77203240     -0.56979625
    a   1.3110052      Node   315.43672     +0.59766278     -0.50008165
    e   0.2088791      Incl.   23.66023     +0.21625257     -0.65211240
    P   1.50           H   23.1           G   0.15           U   7
    Residuals in seconds of arc
    170129 703  0.3-  0.5+    170129 246  0.2+  0.0     170130 K88  0.7+  0.3+
    170129 703  0.2+  1.0-    170129 246  0.4+  0.0     170130 K88  0.3+  0.6+
    170129 703  0.5-  0.8+    170129 246  0.3+  0.0     170130 I52  0.1-  0.1-
    170129 703  0.2+  0.1+    170129 246  0.3-  0.0     170130 I52  0.1-  0.1+
    170129 H01  0.1+  0.0     170129 246  0.0   0.5-    170130 I52  0.2-  0.0
    170129 I52  0.4-  0.1-    170129 246  0.5+  0.1+    170130 I52  0.3-  0.0
    170129 I52  0.0   0.2-    170129 160  0.6+  0.3+    170130 H21  0.2+  0.1+
    170129 I52  0.1-  0.2+    170129 160  0.6+  0.2+    170130 H21  0.3+  0.3-
    170129 I52  0.1-  0.3+    170130 C42  0.3-  0.0     170130 H21  0.2+  0.2-
    170129 H01  0.1+  0.1-    170130 160  0.5+  0.1-    170130 F51  0.1-  0.1+
    170129 H01  0.1+  0.0     170130 160  0.1+  0.3-    170130 F51  0.3-  0.3-
    170129 H01  0.2+  0.1-    170130 C42  1.4-  0.9-    170130 F51  0.1-  0.1+
    170129 703  0.7+  0.0     170130 K88  0.1+  0.3+    170130 F51  0.1-  0.2+
    170129 703  0.2+  0.2-    170130 K88  0.1+  0.4+    170130 Q62  0.0   0.1+
    170129 703  0.1+  0.2-    170130 K88  0.2+  0.4+    170130 Q62  0.2-  0.4-
    170129 703  0.8-  0.4-    170130 104  0.4-  0.6-    170130 Q62  0.4+  0.1+
    170129 K63  0.7+  0.6+    170130 104  0.4-  0.3-    170131 I52  0.1-  0.1-
    170129 K63  0.1-  0.1+    170130 104  0.3-  0.4-    170131 I52  0.3+  0.1-
    170129 K63  0.2-  0.4+    170130 J22  0.0   0.0     170131 I52  0.2+  0.0
    170129 246  0.0   0.5-    170130 J22  0.2+  0.3+    170131 I52  0.2+  0.1+
    170129 246  0.2+  0.2-    170130 J22  0.1+  0.8+
    
    Ephemeris:
    2017 BP32                a,e,i = 1.31, 0.21, 24                  q = 1.0372
    Date    TT    R. A. (2000) Decl.     Delta      r     Elong.  Phase     V
    2017 01 01    13 39 34.7 +62 23 38   0.2554  1.0754   104.3    62.4    22.5
    ...
    2017 01 16    13 14 21.5 +52 41 32   0.1541  1.0513   112.0    60.1    21.3
    ...
    2017 01 24    12 40 13.7 +39 38 22   0.1034  1.0430   122.1    53.1    20.2
    ...
    2017 01 30    12 00 38.3 +18 15 07   0.07480 1.0392   134.8    42.3    19.2
    2017 01 31    11 52 45.1 +13 10 28   0.07177 1.0387   136.8    40.5    19.1
    2017 02 01    11 44 30.7 +07 41 37   0.06945 1.0383   138.4    39.1    18.9
    ...
    2017 02 07    10 48 57.4 -26 46 20   0.07278 1.0372   132.9    44.2    19.2
    ...
    2017 02 15    09 30 18.8 -52 22 05   0.1108  1.0388   114.7    59.8    20.5
    ...
    2017 03 02    07 48 38.8 -63 19 11   0.2065  1.0516   101.4    67.5    22.2
    
    A. U. Tomatic                (C) Copyright 2017 MPC           M.P.E.C. 2017-B156
    

    Read MPEC 2017-B155 Read MPEC 2017-B157


    MPEC number:

    Enter an MPEC number in one of the following forms:

    • 1997-B01 (the full form)
    • J97B01 (the packed version of the full form)
    • B01 (the abbreviated form)